M I D A S
Marine Information and Data Acquisition System
Tripno 1495 of the Zeeleeuw from 2008-05-29 08:08:25 to 2008-05-29 13:25:32
Back to CruiseResearch ActivitiesStationsMapUnderway DataData graphs

EquipmentUnitsComment
TimeDGPSUTC
LatitudeDGPSDM.mWGS84
LongitudeDGPSDM.mWGS84
TemperatureSBE03/SBE38deg celciusITS90
ConductivitySBE21S/mITS90
SalinitySBE21 Practical Salinity Units
ChlorophylAChelsea fluorimeterg/lCalibrated in Aceton
Missing or incorrect values are displayed as -999
Sea surface data collected by the RV Zeeleeuw from 2008-05-29 08:10:42 to 2008-05-29 13:32:13
Time Latitude Longitude Temperature Conductivity Salinity ChlorophylA
2008-05-29 08:11:48 51°13.643 2°55.99 20.2602 0.01041 0.057624 -1.766697
2008-05-29 08:12:48 51°13.678 2°55.881 20.2688 0.01041 0.057626 -1.766697
2008-05-29 08:13:48 51°13.695 2°55.781 20.2751 0.01041 0.057627 -1.731873
2008-05-29 08:14:48 51°13.698 2°55.754 20.2821 0.01041 0.057629 -1.766697
2008-05-29 08:15:48 51°13.701 2°55.757 20.282 0.01041 0.057632 -1.766697
2008-05-29 08:16:47 51°13.72 2°55.74 20.2845 0.01041 0.057633 -1.731873
2008-05-29 08:17:46 51°13.809 2°55.652 20.2799 0.01041 0.057635 -1.731873
2008-05-29 08:18:45 51°13.902 2°55.581 20.2913 0.01041 0.057637 -1.731873
2008-05-29 08:19:45 51°13.994 2°55.521 20.2967 0.01041 0.057639 -1.731873
2008-05-29 08:20:45 51°14.068 2°55.47 20.3039 0.01041 0.057642 -1.766697
2008-05-29 08:21:46 51°14.132 2°55.424 20.3129 0.01041 0.057644 -1.731873
2008-05-29 08:22:48 51°14.219 2°55.355 20.3123 0.01041 0.057646 -1.731873
2008-05-29 08:23:46 51°14.286 2°55.234 20.3097 0.01041 0.057649 -1.731873
2008-05-29 08:24:45 51°14.363 2°55.024 20.3 0.01041 0.057651 -1.766697
2008-05-29 08:25:45 51°14.452 2°54.751 20.2909 0.01041 0.057654 -1.731873
2008-05-29 08:26:44 51°14.545 2°54.477 20.2941 0.01041 0.057658 -1.731873
2008-05-29 08:27:45 51°14.639 2°54.186 20.2864 0.01041 0.057662 -1.731873
2008-05-29 08:28:44 51°14.698 2°53.883 20.2863 0.01041 0.057665 -1.731873
2008-05-29 08:29:45 51°14.755 2°53.57 20.2859 0.01041 0.057668 -1.731873
2008-05-29 08:30:45 51°14.81 2°53.257 20.2942 0.01041 0.057671 -1.731873
2008-05-29 08:31:44 51°14.861 2°52.947 20.2873 0.01041 0.057675 -1.731873
2008-05-29 08:32:45 51°14.897 2°52.619 20.3018 0.01041 0.057677 -1.766697
2008-05-29 08:33:45 51°14.937 2°52.295 20.3055 0.01041 0.057679 -1.731873
2008-05-29 08:34:44 51°14.975 2°51.98 20.3055 0.01041 0.057682 -1.766697
2008-05-29 08:35:45 51°15.021 2°51.657 20.3106 0.01041 0.057684 -1.731873
2008-05-29 08:36:45 51°15.065 2°51.343 20.3107 0.01041 0.057687 -1.731873
2008-05-29 08:37:44 51°15.117 2°51.035 20.3203 0.01041 0.05769 -1.731873
2008-05-29 08:38:45 51°15.17 2°50.716 20.3306 0.01041 0.057694 -1.731873
2008-05-29 08:39:44 51°15.224 2°50.408 20.3329 0.01041 0.057699 -1.731873
2008-05-29 08:40:45 51°15.275 2°50.087 20.3336 0.01041 0.057702 -1.731873
2008-05-29 08:41:44 51°15.323 2°49.772 20.3419 0.01041 0.057705 -1.766697
2008-05-29 08:42:44 51°15.378 2°49.457 20.3462 0.01041 0.057708 -1.731873
2008-05-29 08:43:44 51°15.437 2°49.145 20.3439 0.01041 0.057713 -1.766697
2008-05-29 08:44:45 51°15.5 2°48.828 20.3536 0.01041 0.057715 -1.731873
2008-05-29 08:45:45 51°15.568 2°48.517 20.3626 0.01041 0.057721 -1.731873
2008-05-29 08:46:44 51°15.632 2°48.21 20.3603 0.01041 0.057725 -1.766697
2008-05-29 08:47:44 51°15.697 2°47.901 20.3667 0.01041 0.057728 -1.731873
2008-05-29 08:48:44 51°15.764 2°47.597 20.3712 0.01041 0.057733 -1.731873
2008-05-29 08:49:45 51°15.843 2°47.291 20.3797 0.010307 0.057218 -1.731873
2008-05-29 08:50:45 51°15.913 2°46.988 20.3846 0.010307 0.057224 -1.766697
2008-05-29 08:51:44 51°15.99 2°46.696 20.3911 0.010307 0.057229 -1.731873
2008-05-29 08:52:45 51°16.074 2°46.398 20.3959 0.010307 0.057234 -1.731873
2008-05-29 08:53:44 51°16.159 2°46.111 20.4005 0.010307 0.057239 -1.731873
2008-05-29 08:54:44 51°16.253 2°45.821 20.3998 0.010307 0.057245 -1.731873
2008-05-29 08:55:44 51°16.345 2°45.528 20.4055 0.010307 0.05725 -1.731873
2008-05-29 08:56:44 51°16.444 2°45.236 20.4172 0.010307 0.057256 -1.766697
2008-05-29 08:57:44 51°16.545 2°44.943 20.4202 0.004853 0.03025 -1.731873
2008-05-29 08:58:44 51°16.643 2°44.647 20.4235 0.010307 0.057272 -1.731873
2008-05-29 08:59:45 51°16.746 2°44.349 20.4253 0.010307 0.057282 -1.731873
2008-05-29 09:00:44 51°16.838 2°44.057 20.432 0.010307 0.05729 -1.731873
2008-05-29 09:01:45 51°16.945 2°43.768 20.4387 0.010307 0.057299 -1.766697
2008-05-29 09:02:44 51°17.069 2°43.506 20.4439 0.010307 0.057311 -1.731873
2008-05-29 09:03:44 51°17.194 2°43.239 20.4454 0.010307 0.057322 -1.731873
2008-05-29 09:04:44 51°17.319 2°42.975 20.4546 0.010307 0.057332 -1.731873
2008-05-29 09:05:44 51°17.448 2°42.716 20.4596 0.010307 0.057343 -1.731873
2008-05-29 09:06:44 51°17.573 2°42.449 20.4576 0.010307 0.057356 -1.731873
2008-05-29 09:07:44 51°17.709 2°42.192 20.4665 0.010307 0.05737 -1.766697
2008-05-29 09:08:45 51°17.842 2°41.922 20.4733 0.010307 0.057383 -1.731873
2008-05-29 09:09:44 51°17.953 2°41.648 20.4798 0.010307 0.057395 -1.731873
2008-05-29 09:10:45 51°18.061 2°41.36 20.4795 0.010307 0.057406 -1.731873
2008-05-29 09:11:44 51°18.164 2°41.081 20.4849 0.010307 0.057419 -1.766697
2008-05-29 09:12:44 51°18.267 2°40.796 20.4812 0.010307 0.057432 -1.766697
2008-05-29 09:13:44 51°18.374 2°40.516 20.4955 0.010307 0.057446 -1.731873
2008-05-29 09:14:44 51°18.491 2°40.248 20.5015 0.010307 0.057461 -1.731873
2008-05-29 09:15:44 51°18.603 2°39.972 20.5083 0.010307 0.057472 -1.731873
2008-05-29 09:16:44 51°18.717 2°39.696 20.5005 0.010307 0.057482 -1.766697
2008-05-29 09:17:45 51°18.839 2°39.418 20.5126 0.010307 0.057492 -1.731873
2008-05-29 09:18:44 51°18.953 2°39.147 20.508 0.010307 0.05751 -1.731873
2008-05-29 09:19:45 51°19.069 2°38.865 20.5182 0.010307 0.057525 -1.731873
2008-05-29 09:20:44 51°19.177 2°38.599 20.5306 0.010307 0.05754 -1.731873
2008-05-29 09:21:45 51°19.281 2°38.31 20.5273 0.010307 0.057555 -1.731873
2008-05-29 09:22:44 51°19.406 2°38.052 20.5415 0.010307 0.05757 -1.731873
2008-05-29 09:23:44 51°19.529 2°37.791 20.5401 0.010307 0.057586 -1.731873
2008-05-29 09:24:45 51°19.655 2°37.539 20.5463 0.010307 0.057602 -1.731873
2008-05-29 09:25:44 51°19.77 2°37.326 20.5474 0.010307 0.057618 -1.731873
2008-05-29 09:26:45 51°19.849 2°37.182 20.5603 0.010307 0.057632 -1.731873
2008-05-29 09:27:44 51°19.893 2°37.107 20.5694 0.010307 0.057643 -1.731873
2008-05-29 09:28:45 51°19.931 2°37.051 20.573 0.010307 0.057651 -1.731873
2008-05-29 09:29:45 51°19.974 2°36.996 20.5735 0.010307 0.057652 -1.731873
2008-05-29 09:30:45 51°20.02 2°36.934 20.5724 0.010307 0.057655 -1.731873
2008-05-29 09:31:45 51°20.05 2°36.889 20.5797 0.010307 0.057656 -1.731873
2008-05-29 09:32:45 51°20.064 2°36.877 20.5811 0.010204 0.057131 -1.731873
2008-05-29 09:33:45 51°20.066 2°36.876 20.5889 0.010204 0.057133 -1.731873
2008-05-29 09:34:44 51°20.067 2°36.876 20.5933 0.010204 0.057134 -1.731873
2008-05-29 09:35:45 51°20.066 2°36.876 20.5935 0.010204 0.057132 -1.766697
2008-05-29 09:36:44 51°20.066 2°36.877 20.6028 0.010204 0.057129 -1.766697
2008-05-29 09:37:44 51°20.064 2°36.877 20.6032 0.010204 0.057128 -1.731873
2008-05-29 09:38:44 51°20.07 2°36.863 20.6024 0.010204 0.057128 -1.731873
2008-05-29 09:39:44 51°20.113 2°36.849 20.6052 0.010204 0.057128 -1.731873
2008-05-29 09:40:44 51°20.149 2°36.903 20.6261 0.010204 0.05713 -1.731873
2008-05-29 09:41:44 51°20.158 2°36.947 20.6321 0.010204 0.057129 -1.731873
2008-05-29 09:42:45 51°20.158 2°36.972 20.6262 0.010204 0.057125 -1.731873
2008-05-29 09:43:44 51°20.156 2°36.98 20.6395 0.010204 0.057122 -1.731873
2008-05-29 09:44:44 51°20.154 2°36.982 20.6377 0.010204 0.057122 -1.731873
2008-05-29 09:45:44 51°20.153 2°36.981 20.6476 0.010204 0.057123 -1.731873
2008-05-29 09:46:44 51°20.151 2°36.98 20.6445 0.010204 0.057126 -1.731873
2008-05-29 09:47:44 51°20.149 2°36.977 20.6512 0.010204 0.057129 -1.766697
2008-05-29 09:48:44 51°20.146 2°36.974 20.6571 0.010204 0.057133 -1.731873
2008-05-29 09:49:44 51°20.142 2°36.973 20.6627 0.010204 0.057136 -1.731873
2008-05-29 09:50:44 51°20.139 2°36.971 20.6646 0.010204 0.057141 -1.731873
2008-05-29 09:51:45 51°20.137 2°36.967 20.6638 0.010204 0.057144 -1.731873
2008-05-29 09:52:44 51°20.134 2°36.963 20.6688 0.010204 0.057149 -1.731873
2008-05-29 09:53:44 51°20.133 2°36.958 20.6774 0.010204 0.057154 -1.731873
2008-05-29 09:54:44 51°20.131 2°36.951 20.6778 0.010204 0.05716 -1.731873
2008-05-29 09:55:44 51°20.127 2°36.946 20.674 0.010204 0.057165 -1.731873
2008-05-29 09:56:44 51°20.124 2°36.943 20.6841 0.010204 0.05717 -1.731873
2008-05-29 09:57:44 51°20.121 2°36.938 20.6842 0.010204 0.057175 -1.731873
2008-05-29 09:58:44 51°20.118 2°36.932 20.6901 0.010204 0.057179 -1.731873
2008-05-29 09:59:44 51°20.114 2°36.927 20.6838 0.010204 0.057183 -1.731873
2008-05-29 10:00:45 51°20.11 2°36.923 20.6974 0.010204 0.057188 -1.731873
2008-05-29 10:01:44 51°20.106 2°36.919 20.6924 0.010204 0.057193 -1.731873
2008-05-29 10:02:45 51°20.102 2°36.916 20.7033 0.010204 0.057197 -1.731873
2008-05-29 10:03:45 51°20.099 2°36.911 20.7012 0.010204 0.057201 -1.766697
2008-05-29 10:04:44 51°20.095 2°36.907 20.7057 0.010204 0.057204 -1.731873
2008-05-29 10:05:45 51°20.092 2°36.901 20.7005 0.010307 0.057735 -1.731873
2008-05-29 10:06:44 51°20.092 2°36.89 20.7095 0.010204 0.057212 -1.731873
2008-05-29 10:07:44 51°20.091 2°36.881 20.7152 0.010204 0.057217 -1.731873
2008-05-29 10:08:44 51°20.088 2°36.873 20.7148 0.010204 0.057221 -1.731873
2008-05-29 10:09:44 51°20.084 2°36.866 20.7175 0.010204 0.057225 -1.766697
2008-05-29 10:10:44 51°20.079 2°36.861 20.7227 0.010204 0.057231 -1.731873
2008-05-29 10:11:45 51°20.074 2°36.857 20.7176 0.010307 0.057764 -1.731873
2008-05-29 10:12:44 51°20.069 2°36.854 20.728 0.010204 0.057241 -1.731873
2008-05-29 10:13:44 51°20.064 2°36.853 20.7383 0.010204 0.057246 -1.731873
2008-05-29 10:14:45 51°20.058 2°36.851 20.7355 0.010204 0.05725 -1.766697
2008-05-29 10:15:44 51°20.053 2°36.849 20.7355 0.010204 0.057254 -1.766697
2008-05-29 10:16:44 51°20.046 2°36.847 20.7326 0.010204 0.057256 -1.766697
2008-05-29 10:17:44 51°20.04 2°36.847 20.7445 0.010204 0.057258 -1.731873
2008-05-29 10:18:45 51°20.034 2°36.845 20.7452 0.010204 0.05726 -1.731873
2008-05-29 10:19:44 51°20.027 2°36.842 20.7526 0.010204 0.057263 -1.731873
2008-05-29 10:20:44 51°20.02 2°36.841 20.7403 0.010204 0.057263 -1.766697
2008-05-29 10:21:45 51°20.013 2°36.839 20.748 0.010204 0.057266 -1.731873
2008-05-29 10:22:45 51°20.005 2°36.837 20.7497 0.010204 0.057267 -1.766697
2008-05-29 10:23:44 51°19.991 2°36.846 20.7456 0.010204 0.057271 -1.731873
2008-05-29 10:24:44 51°19.955 2°36.851 20.748 0.010204 0.057273 -1.731873
2008-05-29 10:25:44 51°19.926 2°36.803 20.7418 0.010204 0.057275 -1.731873
2008-05-29 10:26:44 51°19.93 2°36.733 20.7469 0.010204 0.057278 -1.766697
2008-05-29 10:27:44 51°19.962 2°36.689 20.7496 0.010204 0.057282 -1.731873
2008-05-29 10:28:45 51°19.995 2°36.682 20.7588 0.010204 0.057283 -1.731873
2008-05-29 10:29:44 51°20.013 2°36.677 20.7725 0.010204 0.057284 -1.731873
2008-05-29 10:30:44 51°20.023 2°36.669 20.777 0.010204 0.057284 -1.766697
2008-05-29 10:31:44 51°20.028 2°36.657 20.7633 0.010204 0.057284 -1.731873
2008-05-29 10:32:45 51°20.03 2°36.644 20.7802 0.010204 0.057286 -1.766697
2008-05-29 10:33:45 51°20.029 2°36.628 20.7788 0.010204 0.057288 -1.731873
2008-05-29 10:34:44 51°20.025 2°36.612 20.7949 0.010204 0.057289 -1.731873
2008-05-29 10:35:45 51°20.021 2°36.597 20.79 0.010204 0.057292 -1.766697
2008-05-29 10:36:44 51°20.016 2°36.582 20.7897 0.010204 0.057296 -1.731873
2008-05-29 10:37:44 51°20.01 2°36.567 20.7928 0.010204 0.057299 -1.766697
2008-05-29 10:38:44 51°20.004 2°36.552 20.8001 0.010204 0.057303 -1.731873
2008-05-29 10:39:45 51°20.015 2°36.519 20.788 0.010204 0.057307 -1.731873
2008-05-29 10:40:44 51°20.054 2°36.518 20.7918 0.010204 0.05731 -1.766697
2008-05-29 10:41:44 51°20.084 2°36.587 20.8018 0.010204 0.057315 -1.731873
2008-05-29 10:42:44 51°20.104 2°36.656 20.8052 0.010204 0.057317 -1.731873
2008-05-29 10:43:44 51°20.109 2°36.701 20.8118 0.010204 0.05732 -1.766697
2008-05-29 10:44:44 51°20.107 2°36.727 20.8073 0.010204 0.057322 -1.731873
2008-05-29 10:45:44 51°20.101 2°36.74 20.8168 0.010204 0.057324 -1.731873
2008-05-29 10:46:45 51°20.094 2°36.747 20.8118 0.010204 0.057326 -1.731873
2008-05-29 10:47:45 51°20.087 2°36.738 20.8194 0.010204 0.057328 -1.766697
2008-05-29 10:48:45 51°20.079 2°36.725 20.8273 0.010204 0.05733 -1.731873
2008-05-29 10:49:45 51°20.07 2°36.71 20.8303 0.010204 0.057332 -1.731873
2008-05-29 10:50:44 51°20.061 2°36.694 20.8286 0.010204 0.057334 -1.766697
2008-05-29 10:51:45 51°20.053 2°36.678 20.8342 0.010204 0.057337 -1.731873
2008-05-29 10:52:45 51°20.044 2°36.662 20.8318 0.010204 0.05734 -1.731873
2008-05-29 10:53:45 51°20.037 2°36.645 20.8308 0.010204 0.057343 -1.731873
2008-05-29 10:54:44 51°20.028 2°36.626 20.8361 0.010204 0.057347 -1.731873
2008-05-29 10:55:45 51°20.02 2°36.609 20.8313 0.010204 0.05735 -1.731873
2008-05-29 10:56:44 51°20.011 2°36.59 20.8365 0.010204 0.057353 -1.731873
2008-05-29 10:57:45 51°20.003 2°36.57 20.8376 0.010204 0.057356 -1.731873
2008-05-29 10:58:44 51°19.989 2°36.565 20.8367 0.010204 0.057359 -1.731873
2008-05-29 10:59:45 51°19.976 2°36.582 20.8375 0.010204 0.057363 -1.766697
2008-05-29 11:00:45 51°19.976 2°36.608 20.8392 0.010204 0.057366 -1.766697
2008-05-29 11:01:45 51°19.987 2°36.63 20.8388 0.010204 0.057369 -1.731873
2008-05-29 11:02:45 51°20 2°36.645 20.845 0.010204 0.057374 -1.731873
2008-05-29 11:03:45 51°20.012 2°36.658 20.8438 0.010204 0.057377 -1.731873
2008-05-29 11:04:45 51°20.018 2°36.664 20.8458 0.010204 0.057381 -1.731873
2008-05-29 11:05:45 51°20.017 2°36.663 20.8383 0.010204 0.057385 -1.731873
2008-05-29 11:06:44 51°20.013 2°36.658 20.8492 0.010204 0.057388 -1.766697
2008-05-29 11:07:44 51°20.01 2°36.653 20.8436 0.010204 0.057391 -1.766697
2008-05-29 11:08:44 51°20.007 2°36.648 20.8505 0.010204 0.057394 -1.766697
2008-05-29 11:09:45 51°20.005 2°36.642 20.8374 0.010204 0.057397 -1.731873
2008-05-29 11:10:45 51°20.013 2°36.641 20.8347 0.010204 0.0574 -1.731873
2008-05-29 11:11:45 51°20.025 2°36.627 20.8447 0.010204 0.057402 -1.731873
2008-05-29 11:12:45 51°20.026 2°36.602 20.8424 0.010204 0.057405 -1.731873
2008-05-29 11:13:45 51°20.022 2°36.572 20.8416 0.010204 0.057407 -1.731873
2008-05-29 11:14:45 51°20.018 2°36.543 20.8456 0.010204 0.05741 -1.731873
2008-05-29 11:15:45 51°20.013 2°36.514 20.855 0.010204 0.057413 -1.766697
2008-05-29 11:16:45 51°20.006 2°36.486 20.8531 0.010204 0.057417 -1.766697
2008-05-29 11:17:44 51°20.004 2°36.454 20.8422 0.010204 0.05742 -1.731873
2008-05-29 11:18:45 51°20.022 2°36.415 20.8466 0.010204 0.057422 -1.731873
2008-05-29 11:19:44 51°20.051 2°36.413 20.8546 0.010204 0.057423 -1.731873
2008-05-29 11:20:45 51°20.064 2°36.459 20.8644 0.010204 0.057426 -1.731873
2008-05-29 11:21:44 51°20.068 2°36.528 20.8659 0.010204 0.057427 -1.731873
2008-05-29 11:22:45 51°20.068 2°36.599 20.8698 0.010204 0.057429 -1.731873
2008-05-29 11:23:44 51°20.056 2°36.637 20.8682 0.010204 0.05743 -1.731873
2008-05-29 11:24:44 51°20.062 2°36.671 20.8706 0.010204 0.057432 -1.766697
2008-05-29 11:25:44 51°20.075 2°36.69 20.8688 0.010204 0.057433 -1.731873
2008-05-29 11:26:44 51°20.088 2°36.694 20.8484 0.010204 0.057432 -1.766697
2008-05-29 11:27:44 51°20.101 2°36.682 20.85 0.010204 0.057435 -1.731873
2008-05-29 11:28:44 51°20.109 2°36.654 20.8687 0.010204 0.057436 -1.731873
2008-05-29 11:29:44 51°20.111 2°36.618 20.8681 0.010204 0.05744 -1.731873
2008-05-29 11:30:44 51°20.11 2°36.58 20.8715 0.010204 0.057442 -1.731873
2008-05-29 11:31:44 51°20.107 2°36.544 20.8657 0.010204 0.057444 -1.731873
2008-05-29 11:32:44 51°20.125 2°36.502 20.8729 0.010204 0.057447 -1.766697
2008-05-29 11:33:44 51°20.156 2°36.519 20.881 0.010204 0.057449 -1.766697
2008-05-29 11:34:44 51°20.168 2°36.546 20.8785 0.010204 0.057451 -1.731873
2008-05-29 11:35:44 51°20.169 2°36.535 20.8776 0.010204 0.057451 -1.766697
2008-05-29 11:36:44 51°20.165 2°36.514 20.8829 0.010204 0.05745 -1.766697
2008-05-29 11:37:44 51°20.159 2°36.488 20.888 0.010204 0.057449 -1.731873
2008-05-29 11:38:44 51°20.15 2°36.458 20.8901 0.010204 0.057451 -1.731873
2008-05-29 11:39:44 51°20.139 2°36.429 20.8934 0.010204 0.057452 -1.731873
2008-05-29 11:40:44 51°20.172 2°36.414 20.9455 0.010204 0.057454 -1.731873
2008-05-29 11:41:45 51°20.181 2°36.47 20.9132 0.010204 0.057457 -1.731873
2008-05-29 11:42:44 51°20.162 2°36.504 20.9168 0.010204 0.057458 -1.766697
2008-05-29 11:43:45 51°20.139 2°36.532 20.9193 0.010204 0.057459 -1.731873
2008-05-29 11:44:44 51°20.122 2°36.559 20.9226 0.010204 0.057461 -1.731873
2008-05-29 11:45:44 51°20.109 2°36.583 20.9257 0.010204 0.057462 -1.731873
2008-05-29 11:46:45 51°20.097 2°36.592 20.9312 0.010204 0.057463 -1.766697
2008-05-29 11:47:45 51°20.088 2°36.591 20.9356 0.010204 0.057463 -1.766697
2008-05-29 11:48:44 51°20.079 2°36.582 20.9416 0.010204 0.057464 -1.766697
2008-05-29 11:49:44 51°20.07 2°36.559 20.9475 0.010204 0.057465 -1.731873
2008-05-29 11:50:45 51°20.07 2°36.58 20.9533 0.010204 0.057465 -1.731873
2008-05-29 11:51:44 51°20.1 2°36.586 20.9691 0.010204 0.057465 -1.731873
2008-05-29 11:52:47 51°20.088 2°36.566 20.9776 0.010204 0.057465 -1.766697
2008-05-29 11:53:46 51°20.074 2°36.547 20.9876 0.010204 0.057465 -1.731873
2008-05-29 11:54:47 51°20.062 2°36.527 21 0.010204 0.057467 -1.731873
2008-05-29 11:55:45 51°20.051 2°36.507 21.0096 0.010204 0.057468 -1.731873
2008-05-29 11:56:44 51°20.041 2°36.485 21.0245 0.010204 0.057468 -1.766697
2008-05-29 11:57:44 51°20.031 2°36.459 21.037 0.010204 0.057468 -1.731873
2008-05-29 11:58:45 51°20.021 2°36.432 21.046 0.010204 0.057468 -1.731873
2008-05-29 11:59:45 51°20.011 2°36.405 21.0555 0.010204 0.057468 -1.731873
2008-05-29 12:00:44 51°20.002 2°36.376 21.0682 0.010204 0.057468 -1.766697
2008-05-29 12:01:45 51°19.992 2°36.347 21.0789 0.010204 0.057468 -1.731873
2008-05-29 12:02:44 51°19.982 2°36.318 21.0912 0.010204 0.057468 -1.731873
2008-05-29 12:03:45 51°19.972 2°36.287 21.099 0.010204 0.057468 -1.766697
2008-05-29 12:04:45 51°19.963 2°36.254 21.1139 0.010101 0.056937 -1.731873
2008-05-29 12:05:44 51°19.987 2°36.202 21.1983 0.010204 0.057468 -1.731873
2008-05-29 12:06:45 51°20.021 2°36.252 21.162 0.010204 0.057468 -1.731873
2008-05-29 12:07:44 51°19.992 2°36.402 21.1551 0.010204 0.057471 -1.766697
2008-05-29 12:08:45 51°19.959 2°36.636 21.1628 0.010204 0.057471 -1.731873
2008-05-29 12:09:44 51°19.928 2°36.904 21.1776 0.010204 0.057472 -1.731873
2008-05-29 12:10:45 51°19.9 2°37.206 21.2109 0.010204 0.057472 -1.731873
2008-05-29 12:11:44 51°19.863 2°37.497 21.1968 0.010204 0.057473 -1.731873
2008-05-29 12:12:44 51°19.833 2°37.796 21.2114 0.010204 0.057476 -1.731873
2008-05-29 12:13:45 51°19.798 2°38.1 21.2235 0.010204 0.057478 -1.731873
2008-05-29 12:14:44 51°19.769 2°38.396 21.23 0.010204 0.057481 -1.766697
2008-05-29 12:15:44 51°19.735 2°38.698 21.2516 0.010204 0.057483 -1.731873
2008-05-29 12:16:45 51°19.699 2°39.005 21.2652 0.010204 0.057485 -1.766697
2008-05-29 12:17:45 51°19.663 2°39.309 21.2799 0.010204 0.057487 -1.731873
2008-05-29 12:18:44 51°19.629 2°39.609 21.2856 0.010204 0.05749 -1.731873
2008-05-29 12:19:45 51°19.587 2°39.92 21.2886 0.010204 0.057492 -1.766697
2008-05-29 12:20:45 51°19.553 2°40.222 21.3033 0.010204 0.057493 -1.731873
2008-05-29 12:21:45 51°19.515 2°40.518 21.3199 0.010204 0.057493 -1.731873
2008-05-29 12:22:45 51°19.478 2°40.809 21.3391 0.010204 0.057496 -1.766697
2008-05-29 12:23:45 51°19.431 2°41.099 21.3495 0.010204 0.057496 -1.731873
2008-05-29 12:24:44 51°19.385 2°41.383 21.3777 0.010204 0.057498 -1.766697
2008-05-29 12:25:44 51°19.335 2°41.674 21.3838 0.010204 0.057498 -1.731873
2008-05-29 12:26:45 51°19.278 2°41.973 21.3842 0.010204 0.057499 -1.731873
2008-05-29 12:27:44 51°19.223 2°42.264 21.4 0.010204 0.057501 -1.766697
2008-05-29 12:28:45 51°19.172 2°42.566 21.4153 0.010204 0.057502 -1.731873
2008-05-29 12:29:45 51°19.117 2°42.864 21.4243 0.010204 0.057504 -1.766697
2008-05-29 12:30:45 51°19.061 2°43.157 21.4374 0.010204 0.057507 -1.731873
2008-05-29 12:31:45 51°18.998 2°43.448 21.4574 0.010204 0.057509 -1.766697
2008-05-29 12:32:45 51°18.94 2°43.74 21.469 0.010204 0.057511 -1.731873
2008-05-29 12:33:44 51°18.882 2°44.028 21.5016 0.010204 0.057515 -1.731873
2008-05-29 12:34:45 51°18.828 2°44.325 21.4882 0.010204 0.057516 -1.766697
2008-05-29 12:35:45 51°18.772 2°44.605 21.5124 0.010204 0.057519 -1.766697
2008-05-29 12:36:45 51°18.718 2°44.885 21.5085 0.010204 0.057521 -1.731873
2008-05-29 12:37:44 51°18.662 2°45.163 21.5489 0.010204 0.057523 -1.731873
2008-05-29 12:38:45 51°18.601 2°45.451 21.5464 0.010204 0.057525 -1.731873
2008-05-29 12:39:44 51°18.542 2°45.732 21.555 0.010204 0.057528 -1.731873
2008-05-29 12:40:45 51°18.492 2°46.026 21.5692 0.010204 0.057529 -1.731873
2008-05-29 12:41:45 51°18.442 2°46.316 21.6229 0.010204 0.057532 -1.731873
2008-05-29 12:42:45 51°18.393 2°46.604 21.6064 0.010204 0.057535 -1.731873
2008-05-29 12:43:45 51°18.343 2°46.889 21.6245 0.010204 0.057538 -1.731873
2008-05-29 12:44:45 51°18.297 2°47.175 21.6238 0.010204 0.057541 -1.766697
2008-05-29 12:45:45 51°18.252 2°47.461 21.6343 0.010204 0.057543 -1.731873
2008-05-29 12:46:44 51°18.208 2°47.742 21.6542 0.010204 0.057547 -1.766697
2008-05-29 12:47:45 51°18.16 2°48.035 21.6763 0.010101 0.057018 -1.731873
2008-05-29 12:48:44 51°18.114 2°48.316 21.6946 0.010204 0.057554 -1.731873
2008-05-29 12:49:45 51°18.071 2°48.607 21.6928 0.010204 0.057558 -1.766697
2008-05-29 12:50:45 51°18.018 2°48.888 21.6872 0.010204 0.057562 -1.731873
2008-05-29 12:51:45 51°17.976 2°49.172 21.7541 0.010204 0.057563 -1.766697
2008-05-29 12:52:45 51°17.928 2°49.456 21.7356 0.010204 0.057566 -1.766697
2008-05-29 12:53:45 51°17.887 2°49.744 21.75 0.010101 0.057038 -1.731873
2008-05-29 12:54:45 51°17.849 2°50.032 21.7502 0.010101 0.057041 -1.731873
2008-05-29 12:55:45 51°17.809 2°50.32 21.7714 0.010101 0.057044 -1.731873
2008-05-29 12:56:45 51°17.77 2°50.608 21.802 0.010204 0.057579 -1.731873
2008-05-29 12:57:44 51°17.73 2°50.892 21.8067 0.010101 0.05705 -1.731873
2008-05-29 12:58:45 51°17.675 2°51.183 21.7693 0.010101 0.057052 -1.731873
2008-05-29 12:59:44 51°17.629 2°51.467 21.8807 0.010101 0.057056 -1.731873
2008-05-29 13:00:45 51°17.53 2°51.739 21.9042 0.010101 0.05706 -1.731873
2008-05-29 13:01:45 51°17.383 2°51.951 21.9144 0.010101 0.057063 -1.731873
2008-05-29 13:02:44 51°17.275 2°52.064 21.3115 0.010101 0.057072 -1.731873
2008-05-29 13:03:45 51°17.226 2°52.082 21.3597 0.010101 0.057078 -1.766697
2008-05-29 13:04:45 51°17.186 2°52.074 21.3934 0.010101 0.057082 -1.731873
2008-05-29 13:05:45 51°17.093 2°52.125 21.4017 0.010101 0.057085 -1.766697
2008-05-29 13:06:44 51°16.914 2°52.208 21.4984 0.010101 0.057089 -1.731873
2008-05-29 13:07:45 51°16.696 2°52.241 21.4435 0.010101 0.057093 -1.766697
2008-05-29 13:08:45 51°16.481 2°52.277 21.4685 0.010101 0.057098 -1.766697
2008-05-29 13:09:44 51°16.267 2°52.298 21.4435 0.010101 0.057101 -1.731873
2008-05-29 13:10:45 51°16.045 2°52.319 21.3028 0.010101 0.057105 -1.766697
2008-05-29 13:11:45 51°15.839 2°52.387 21.2666 0.010101 0.057107 -1.731873
2008-05-29 13:12:45 51°15.666 2°52.559 21.3186 0.010101 0.057109 -1.731873
2008-05-29 13:13:44 51°15.522 2°52.769 21.3727 0.010101 0.057109 -1.731873
2008-05-29 13:14:45 51°15.39 2°53.011 21.3568 0.010101 0.057109 -1.766697
2008-05-29 13:15:45 51°15.249 2°53.239 21.4518 0.010101 0.057112 -1.731873
2008-05-29 13:16:45 51°15.13 2°53.462 21.4134 0.010101 0.057115 -1.731873
2008-05-29 13:17:45 51°15.043 2°53.628 21.3994 0.010101 0.057116 -1.766697
2008-05-29 13:18:44 51°14.967 2°53.764 21.4261 0.010101 0.057117 -1.731873
2008-05-29 13:19:45 51°14.89 2°53.895 21.4316 0.010101 0.057117 -1.731873
2008-05-29 13:20:45 51°14.817 2°54.061 21.4622 0.010101 0.057119 -1.731873
2008-05-29 13:21:45 51°14.741 2°54.264 21.4823 0.010101 0.057119 -1.766697
2008-05-29 13:22:45 51°14.655 2°54.423 21.4535 0.010101 0.05712 -1.731873
2008-05-29 13:23:44 51°14.556 2°54.585 21.4895 0.010101 0.057122 -1.766697
2008-05-29 13:24:44 51°14.456 2°54.827 21.5046 0.010101 0.057123 -1.766697
2008-05-29 13:25:45 51°14.356 2°55.086 21.5494 0.010101 0.057123 -1.731873
2008-05-29 13:26:45 51°14.273 2°55.243 21.5102 0.010101 0.057125 -1.766697
2008-05-29 13:27:46 51°14.199 2°55.347 21.5288 0.010101 0.057127 -1.731873
2008-05-29 13:28:48 51°14.109 2°55.43 21.5396 0.010101 0.057129 -1.766697
2008-05-29 13:29:47 51°14.019 2°55.491 21.5453 0.010101 0.057131 -1.731873
2008-05-29 13:30:46 51°13.911 2°55.572 21.5399 0.010101 0.057134 -1.766697
2008-05-29 13:31:45 51°13.798 2°55.669 21.5525 0.010101 0.057135 -1.731873